Location: Amsterdam
(30.7274°N, 84.4357°W)
Time: 02:09:18
(UTC+00:00)

Courier 1B Rocket - Pass Details

Date: 12 February 2026
Orbit: 920 x 1201 km, 28.2° (Epoch: 13 March)

Event Time Altitude Azimuth Distance (km) Brightness Sun altitude
Rises 08:05:18 0° 275° (W) 3,913 - -54.9°
Reaches altitude 10° 08:08:11 10° 268° (W) 2,994 - -54.4°
Maximum altitude 08:15:01 40° 201° (SSW) 1,658 - -53.0°
Drops below altitude 10° 08:22:07 10° 135° (SE) 3,115 - -51.5°
Exits shadow 08:23:31 - 132° (SE) 3,551 8.1 -51.2°
Sets 08:25:11 0° 128° (SE) 4,086 8.5 -50.9°
